GFSSGP_sfc_temp_231.txt.gz
Temp
66 65 64 63 51 47 42 49 53 58 59 62 65 64 63 61 60 53 65 67 67 68 71 72 74 75 75 75 75 75 75 75 75 75 75 75 75 75 75 75 75 75 75 75 74 74 73 72 72
64 70 63 55 45 39 43 49 55 60 64 64 65 62 62 58 62 61 62 68 70 69 71 71 72 74 75 74 74 74 75 75 75 75 75 75 75 75 75 75 75 75 75 74 74 73 72 71 71
67 68 58 50 43 42 44 53 57 63 63 64 61 62 60 59 61 63 66 69 69 69 70 71 71 74 74 74 74 74 74 74 74 74 75 75 75 75 74 74 74 74 74 74 73 72 71 71 71
65 61 55 46 44 47 51 56 58 61 62 64 63 58 61 67 64 67 69 69 68 68 70 69 72 73 74 73 73 74 74 74 74 74 74 74 74 74 74 74 73 73 73 73 72 71 71 70 70
60 54 46 42 46 49 54 59 58 60 60 61 62 56 57 64 68 68 68 69 67 69 68 69 71 73 73 73 73 73 73 74 74 74 74 74 73 73 73 73 73 72 72 72 71 71 70 69 69
53 52 41 43 49 51 56 60 59 59 63 61 58 57 58 64 65 66 68 67 70 70 68 69 68 69 71 72 72 72 73 73 73 74 73 73 74 73 72 72 72 72 72 71 71 70 70 69 69
48 45 44 44 51 51 59 61 58 61 59 61 65 55 56 59 64 67 67 66 69 70 68 69 69 68 67 69 69 70 71 72 72 72 72 71 71 71 72 71 71 71 71 71 70 70 70 70 70
56 49 43 46 52 51 59 62 64 63 62 63 63 55 55 61 64 65 66 65 66 69 70 70 69 67 67 67 66 67 69 69 70 69 68 67 67 67 68 67 69 71 71 71 70 70 70 70 69
62 49 45 49 52 53 58 59 62 62 62 58 60 60 62 64 64 63 62 64 66 68 70 70 69 68 65 65 65 65 65 66 66 66 64 63 63 63 64 63 65 69 69 70 70 70 69 67 66
53 47 49 54 55 56 60 59 61 57 56 55 56 60 64 64 63 60 60 61 65 66 68 69 69 67 65 67 64 63 65 64 63 63 62 62 62 62 64 61 62 65 65 67 68 69 67 64 60
51 46 54 58 60 61 61 62 61 62 54 59 59 58 60 61 62 61 61 63 65 68 68 68 67 65 65 65 63 61 62 61 62 62 61 61 62 60 60 59 60 59 57 59 61 60 60 60 60
43 53 55 58 58 58 58 62 57 62 63 66 62 63 62 61 61 61 61 63 66 66 67 67 66 65 64 64 63 62 62 60 59 60 61 60 59 58 59 58 59 58 58 58 58 58 59 59 60
43 47 54 56 58 56 56 57 61 58 61 61 63 63 61 62 62 62 64 65 67 65 67 67 65 65 64 63 63 62 62 61 61 60 61 60 59 59 59 59 58 58 58 58 58 58 59 59 60
47 48 51 52 53 56 54 55 57 60 57 59 61 60 61 62 62 58 61 62 64 65 66 67 64 64 64 63 62 62 62 61 61 60 61 61 61 60 59 59 59 58 59 59 59 59 59 59 60
48 42 47 50 51 52 56 53 53 56 57 57 58 59 60 62 61 61 63 63 63 64 64 63 64 64 63 63 62 61 61 62 61 61 62 62 62 61 60 59 59 59 60 60 59 59 59 59 61
41 42 38 50 50 53 54 46 55 58 54 56 56 55 57 59 60 62 63 64 65 65 64 65 67 64 63 63 62 61 61 61 60 61 61 62 62 62 60 60 60 60 60 60 59 59 59 59 60
40 35 38 45 52 51 50 45 53 58 54 53 54 55 56 57 59 61 63 63 64 65 65 64 66 63 62 62 62 62 62 60 60 61 61 62 62 62 61 60 60 61 60 59 59 60 59 63 64
33 34 40 41 46 48 45 45 52 54 53 53 53 55 56 56 59 61 62 63 64 64 65 64 64 64 63 62 61 60 60 60 60 60 61 62 62 62 61 60 60 60 59 59 59 59 61 64 64
40 40 39 41 45 46 45 46 48 50 54 53 55 53 56 57 60 60 61 62 63 63 62 64 63 62 62 58 58 57 59 59 60 60 63 63 63 63 62 63 61 60 60 60 60 60 60 62 62
38 39 37 42 47 46 45 45 46 46 48 51 51 50 52 53 56 58 57 60 62 61 61 60 62 62 63 63 60 60 60 60 61 63 64 65 67 67 66 65 65 64 63 62 62 62 61 61 61
34 35 37 38 43 44 43 38 40 44 47 54 53 51 50 50 51 53 57 57 59 59 58 60 60 61 62 63 61 61 62 61 62 65 65 67 68 67 66 66 65 64 64 63 63 63 61 60 59
34 42 42 39 38 32 39 30 33 38 42 50 51 51 49 49 51 52 54 55 54 56 57 58 59 59 60 61 61 61 61 61 62 65 65 66 66 66 66 65 65 64 64 63 63 62 61 60 57
37 42 41 41 35 35 34 32 33 38 38 44 49 50 50 50 50 48 50 53 55 55 55 57 58 58 58 59 60 61 61 61 62 62 63 63 63 63 63 64 64 64 63 63 62 61 61 60 58
45 42 41 37 34 27 32 32 31 34 38 41 47 50 49 49 50 50 51 51 51 53 53 52 53 53 53 55 56 58 60 59 58 58 59 59 59 59 59 60 60 60 60 58 59 59 61 60 59
41 33 26 22 19 22 33 32 32 37 42 44 46 48 48 48 49 49 49 50 50 50 51 53 53 52 53 54 54 54 55 56 56 56 57 56 55 53 53 54 55 54 55 57 58 57 57 57 57
36 35 25 17 20 25 33 28 34 42 45 47 48 48 49 49 48 49 49 49 49 49 50 50 50 50 50 51 50 50 51 51 52 51 50 51 50 50 51 52 53 54 54 54 54 53 54 55 54
35 31 37 29 22 24 28 33 41 44 46 45 45 48 47 48 50 49 50 49 49 49 49 49 50 50 50 50 49 49 50 50 50 50 50 49 50 51 50 50 51 52 52 53 53 52 51 51 51
37 40 29 28 17 17 26 29 30 38 41 44 44 44 45 48 49 50 50 50 50 49 49 49 49 49 49 49 49 48 48 49 49 49 48 48 48 49 48 48 48 49 50 52 51 49 49 47 47
33 32 33 32 29 23 21 27 38 39 42 42 43 45 45 45 46 48 49 50 49 49 49 48 48 49 48 48 47 47 46 46 46 46 46 46 46 47 47 46 46 46 46 47 47 47 46 44 45
35 31 33 26 25 28 28 27 43 41 42 44 43 45 45 46 46 46 47 47 48 48 49 48 48 47 47 47 46 46 46 46 45 45 45 45 45 45 45 45 44 44 44 43 43 42 42 41 40

GFSSGP_sfc_temp_234.txt.gz
Temp
65 64 63 62 51 46 40 47 50 54 56 59 64 63 61 60 59 53 63 66 65 67 70 72 74 75 75 75 74 75 75 75 75 75 75 75 75 75 75 75 74 75 75 75 74 74 73 72 72
62 67 62 53 45 38 41 47 53 57 61 60 62 61 59 58 60 61 61 66 68 68 70 71 72 74 75 74 74 74 75 75 75 75 75 75 75 75 75 75 74 75 75 74 74 73 72 71 71
64 65 57 50 42 42 42 50 56 59 62 59 57 59 61 59 60 63 64 67 68 68 69 71 72 74 74 74 74 74 74 74 74 75 75 75 75 75 74 74 74 74 74 74 73 72 71 71 71
61 60 54 45 42 46 51 54 55 57 60 62 59 56 59 64 62 65 67 68 67 67 68 69 72 74 74 73 73 74 74 74 74 74 74 74 74 74 74 74 74 74 73 73 72 71 71 70 70
57 52 44 40 44 48 52 56 55 57 58 58 59 57 56 62 65 65 66 68 66 66 67 69 71 73 73 73 73 73 73 74 74 74 74 74 73 73 73 73 73 72 72 72 71 70 70 69 69
52 50 39 42 44 51 54 57 57 57 59 58 56 56 56 60 62 64 67 66 68 67 67 68 67 69 71 72 72 72 73 73 73 73 73 73 73 73 72 72 72 72 72 71 71 70 70 69 70
46 43 43 41 46 53 55 58 57 59 56 59 61 56 55 57 61 65 66 66 68 69 69 68 68 68 67 69 69 70 71 72 72 72 72 72 72 72 71 71 71 71 71 71 70 70 70 70 70
51 51 41 45 46 50 55 58 60 60 60 61 63 55 55 59 62 63 65 66 69 69 70 70 68 68 67 67 66 67 69 69 70 69 68 67 67 71 70 68 69 71 71 71 70 70 69 69 69
60 46 44 47 46 51 55 56 59 60 60 57 60 59 60 62 62 62 64 65 67 68 69 71 69 69 65 65 64 65 65 66 66 65 64 63 62 63 63 63 65 68 69 69 70 69 69 67 65
49 41 46 51 51 52 59 57 59 57 55 55 56 59 61 60 60 60 61 62 64 66 67 70 69 68 66 67 64 63 64 63 63 63 62 61 61 61 63 60 62 64 64 66 68 68 67 63 59
45 43 51 54 57 59 56 57 62 56 52 57 58 57 57 58 59 59 60 61 63 68 69 69 68 69 67 65 64 61 61 61 61 61 61 60 61 59 59 59 59 59 57 58 60 59 58 58 58
40 48 51 53 58 56 54 55 56 58 61 62 62 59 59 58 58 59 59 61 62 67 68 69 69 67 66 64 64 61 61 60 60 60 60 59 58 58 58 58 58 58 58 57 57 57 58 58 59
41 45 50 53 53 53 55 52 54 55 62 60 60 60 59 59 60 60 61 62 63 64 67 66 67 67 66 63 62 61 60 60 59 59 60 59 58 57 57 58 58 57 57 57 57 57 58 58 59
44 45 46 50 51 50 49 50 56 54 58 58 59 58 59 59 60 58 60 61 64 67 67 67 66 67 67 64 61 61 60 60 59 59 59 60 59 58 58 58 58 58 58 58 58 58 58 58 58
45 39 44 47 49 50 52 48 52 54 56 57 58 58 59 59 58 59 61 62 67 68 68 67 66 66 65 63 61 60 60 60 59 59 60 60 60 60 60 59 58 58 58 59 58 58 58 58 59
41 42 35 44 48 50 49 40 53 56 54 56 58 55 56 57 58 58 60 62 65 66 66 67 67 65 61 61 61 60 60 60 59 59 60 61 61 61 59 59 59 59 59 59 58 58 58 57 58
38 33 36 38 49 49 47 43 49 55 54 53 56 56 56 56 57 59 61 61 62 63 63 63 64 62 61 61 61 61 61 60 60 60 60 61 61 61 60 59 59 60 59 58 58 58 58 58 59
30 33 36 35 44 46 43 45 47 52 51 52 54 55 55 55 57 59 60 61 61 62 63 63 63 62 62 61 60 60 60 59 59 59 60 61 61 61 60 59 59 59 58 58 58 58 59 59 60
38 37 34 37 46 43 43 44 46 48 49 49 47 52 55 55 57 59 61 61 61 60 61 61 61 61 61 58 59 58 60 58 59 59 60 61 61 61 60 59 60 61 61 62 61 60 59 58 60
35 33 34 40 45 46 44 42 45 46 45 49 49 49 48 51 53 54 58 60 61 60 60 61 62 61 62 62 59 59 58 59 60 61 61 62 62 64 65 64 64 64 62 62 62 61 60 61 61
33 32 33 38 43 42 42 37 40 44 45 48 52 51 50 49 49 54 56 56 58 58 58 59 60 62 62 62 61 61 60 60 59 60 61 65 67 67 66 65 65 64 63 62 62 61 60 60 60
34 40 36 39 38 33 37 29 33 39 40 43 47 50 46 48 50 50 53 53 53 54 57 58 59 60 60 61 61 61 60 58 60 61 63 65 66 66 65 65 64 64 63 62 62 62 61 60 59
36 42 38 39 35 35 33 31 33 38 36 39 43 48 49 48 48 48 49 51 52 53 53 56 57 57 57 58 59 59 60 60 61 61 61 62 62 63 62 63 63 63 63 63 62 60 60 59 57
44 40 40 38 34 27 33 33 30 35 37 40 42 44 48 49 49 48 48 50 49 50 51 52 54 54 55 55 56 57 58 60 59 58 58 57 57 58 59 60 60 60 60 60 60 60 58 57 57
41 35 24 23 21 25 33 30 32 37 41 41 43 43 46 48 48 49 49 48 48 48 49 51 50 51 51 52 53 52 53 54 55 56 56 55 55 55 55 55 55 54 54 55 56 56 55 56 55
35 34 26 18 20 26 33 26 31 42 44 45 45 45 46 47 48 47 47 48 48 49 49 50 49 49 50 51 51 51 52 52 52 53 53 53 52 51 51 52 52 52 53 53 53 52 52 52 53
35 30 36 28 23 25 26 32 39 44 44 45 45 45 43 44 45 48 48 48 48 48 48 49 49 48 49 48 49 49 50 50 50 50 50 49 49 50 50 50 50 51 51 51 50 50 49 51 51
36 39 29 26 17 16 25 28 29 37 39 42 42 43 44 46 46 47 47 48 49 48 48 49 49 48 48 48 48 48 47 48 48 49 48 48 48 48 48 47 47 47 48 49 50 49 49 48 48
32 31 32 31 27 21 19 24 36 38 39 40 41 43 43 44 45 46 47 48 48 48 48 48 48 48 48 48 47 46 46 46 46 46 45 46 45 46 46 45 45 45 45 46 45 45 44 43 42
33 29 31 24 24 26 27 25 40 39 41 42 41 43 43 43 44 45 46 46 47 47 47 46 46 46 46 47 45 44 45 45 44 44 44 44 43 44 44 44 44 43 43 43 43 41 41 41 39

GFSSGP_sfc_temp_237.txt.gz
Temp
66 66 66 66 57 52 47 51 57 59 62 67 68 66 66 67 64 60 66 69 70 71 75 76 74 75 75 75 75 75 75 76 76 76 75 75 75 75 75 75 75 75 75 75 75 74 73 72 72
65 69 65 58 51 45 48 54 55 61 66 65 66 66 66 66 65 63 64 69 71 72 75 76 72 74 74 74 74 74 75 75 75 75 75 75 75 75 75 75 75 75 75 75 74 73 72 71 72
68 67 61 55 47 47 48 54 60 63 66 65 65 65 66 66 65 65 69 69 71 72 74 74 72 74 74 74 74 74 74 75 75 75 75 75 75 75 75 74 74 75 75 74 73 72 71 71 71
64 63 58 49 46 49 55 59 60 62 66 65 66 63 66 68 67 68 69 70 71 71 73 71 72 74 74 74 74 74 74 74 74 74 75 75 75 74 74 74 74 74 74 73 72 71 71 70 70
60 56 49 43 46 53 55 60 60 61 64 65 65 64 63 66 67 68 69 70 69 70 72 73 72 73 73 73 73 73 74 74 74 74 74 74 74 74 74 74 73 73 72 72 71 71 70 70 70
54 53 43 43 49 53 56 59 61 61 62 64 63 61 64 64 65 66 69 69 71 69 71 73 68 70 71 72 72 73 73 73 73 73 73 73 73 73 73 72 72 72 72 71 71 70 70 70 70
50 46 47 45 48 51 57 60 59 63 61 63 66 62 62 62 65 67 68 69 69 70 70 71 72 70 67 69 70 71 71 72 72 72 72 72 71 72 71 71 71 71 71 71 71 70 70 70 70
52 49 42 49 47 48 59 58 63 62 64 65 67 62 62 63 65 66 67 68 68 69 71 70 71 71 72 72 66 67 69 69 70 70 68 68 68 70 68 67 69 71 71 70 70 70 70 69 69
57 44 43 47 47 50 59 57 63 65 64 62 64 64 64 63 64 65 65 66 67 69 71 71 71 70 70 70 67 65 66 66 66 66 64 65 70 72 70 65 66 68 69 69 69 69 69 67 65
48 40 46 54 53 52 56 56 59 60 60 60 60 60 61 61 62 62 62 63 65 66 68 70 71 70 68 69 67 69 69 70 69 69 69 69 68 69 68 63 62 64 64 66 67 68 66 64 69
46 43 51 53 54 56 56 55 56 59 57 61 60 60 58 60 61 62 63 65 65 68 68 69 70 69 68 68 67 67 67 67 68 68 67 67 67 66 67 67 67 67 60 67 67 67 67 66 67
40 46 48 51 54 53 52 55 53 56 62 64 63 61 59 59 60 61 62 65 66 67 68 70 69 67 68 67 67 65 66 66 66 66 66 65 65 65 65 65 66 65 66 65 66 66 66 66 66
41 44 49 50 50 51 53 52 51 53 59 60 62 59 58 60 61 63 64 65 66 67 68 68 68 67 67 66 66 64 65 65 66 66 66 66 65 64 65 65 65 65 65 65 65 66 66 66 67
45 44 46 48 49 50 50 51 55 56 58 57 59 58 59 60 61 61 61 62 64 68 67 69 67 67 67 65 65 64 65 65 65 65 65 65 65 65 64 65 65 65 65 66 66 66 66 66 66
46 39 44 45 47 47 50 45 49 56 56 56 58 59 60 60 61 61 63 63 65 67 68 66 67 67 66 66 65 65 65 65 65 65 65 65 65 65 65 65 65 66 66 65 65 65 65 65 66
41 41 35 45 45 48 48 38 52 54 53 55 57 57 58 59 60 62 63 64 66 67 67 68 68 66 66 65 64 65 65 65 65 65 65 65 65 65 65 65 65 67 66 65 65 65 65 65 66
38 31 35 39 47 47 46 40 50 51 51 50 52 58 58 57 58 59 61 64 67 68 68 67 67 65 64 64 64 65 65 64 65 65 65 66 65 66 65 65 66 66 65 65 65 65 65 65 66
31 32 35 35 44 44 42 42 47 47 48 48 47 52 57 57 58 59 60 62 64 66 67 67 66 65 64 64 63 63 64 64 65 65 65 65 66 65 65 65 65 65 65 65 64 64 65 65 66
38 35 33 38 44 43 41 43 45 44 47 46 46 45 48 54 56 60 61 61 62 62 63 64 64 64 63 62 61 61 62 63 63 64 65 65 66 66 65 65 64 63 62 63 63 62 61 62 64
37 32 33 38 42 42 42 40 41 43 45 46 46 44 45 49 52 57 59 60 60 60 62 63 63 62 63 64 63 63 63 63 65 66 65 66 66 66 65 64 64 64 63 63 63 62 61 62 63
35 33 32 35 41 43 41 36 40 43 45 47 48 49 46 46 48 51 53 54 56 57 59 61 62 62 63 63 63 63 63 63 62 63 64 65 67 67 65 66 65 65 64 63 63 62 61 61 63
33 41 36 37 39 32 37 28 33 39 40 42 44 46 46 45 46 49 50 51 52 53 55 58 60 60 61 62 62 62 61 60 62 64 65 66 67 66 66 65 65 64 63 63 63 63 62 61 60
37 41 39 39 35 36 33 30 32 37 35 38 42 45 47 47 46 46 48 49 51 52 53 55 56 56 57 60 60 60 60 61 62 62 63 62 62 62 63 63 64 63 63 63 63 63 61 62 61
42 39 39 37 35 27 32 32 31 33 35 36 42 43 44 47 46 47 48 49 49 50 51 52 53 53 54 54 55 56 57 58 59 60 59 59 58 58 58 59 60 62 61 61 61 61 62 62 61
38 32 20 21 25 26 32 31 30 37 40 40 40 43 44 44 47 45 45 48 48 48 48 51 51 51 51 52 52 52 52 54 55 56 56 56 55 55 55 56 56 57 58 58 59 59 58 58 59
33 32 24 15 21 26 32 26 31 39 43 45 44 44 44 44 45 46 47 46 47 49 48 49 50 50 50 51 50 51 51 52 52 52 53 54 54 54 54 55 55 55 55 56 56 55 55 56 56
34 30 34 27 22 23 27 32 39 42 43 44 44 44 44 45 45 45 46 47 48 47 49 48 48 49 49 50 50 49 50 51 50 51 51 51 51 52 52 52 52 53 53 53 54 53 52 54 53
34 38 28 26 13 16 25 27 29 36 38 40 40 41 43 45 45 46 47 47 48 48 49 49 49 48 48 48 49 48 49 49 49 50 48 49 49 49 49 49 49 49 50 51 51 50 50 50 50
31 31 32 30 28 21 19 25 36 37 39 38 39 41 41 42 43 45 46 47 47 48 47 48 48 48 48 48 48 48 47 47 48 47 47 47 47 47 47 47 47 47 47 48 48 47 47 45 45
31 28 30 24 23 25 26 25 39 39 40 40 40 41 41 42 43 43 43 44 46 46 46 47 46 46 46 47 47 47 47 47 47 46 46 47 46 46 46 46 45 45 45 46 45 44 44 43 42

GFSSGP_sfc_temp_240.txt.gz
Temp
77 82 85 80 67 65 61 63 73 69 70 77 77 76 75 78 74 69 75 81 84 82 82 79 74 75 75 75 75 75 75 76 76 76 75 76 75 75 75 75 75 75 76 76 75 74 73 72 72
80 79 81 76 62 58 63 70 66 74 77 76 76 76 74 75 77 71 74 78 83 83 81 80 72 74 75 75 75 75 75 75 76 75 75 75 75 75 75 75 75 75 75 75 74 73 72 72 72
77 78 74 68 63 58 62 71 73 76 77 77 75 76 76 76 75 76 79 79 83 82 81 80 72 74 74 74 74 74 75 75 75 75 75 75 75 75 75 75 75 75 75 74 73 72 72 71 71
77 77 75 61 59 65 69 74 73 73 74 75 76 73 76 77 76 78 79 81 82 81 81 74 72 74 74 74 74 74 74 74 75 75 75 75 75 74 74 74 74 74 73 73 72 72 71 70 70
78 73 62 58 61 68 71 71 72 71 73 74 75 73 74 75 77 77 78 80 81 76 79 78 72 73 73 73 74 74 74 74 74 74 74 74 74 74 74 74 74 73 72 72 72 71 70 70 70
67 69 58 56 61 68 71 73 71 72 75 75 73 76 78 75 75 77 79 80 82 74 78 78 69 70 71 72 73 73 73 73 73 73 74 73 73 73 73 73 72 72 72 72 71 70 70 70 70
64 61 58 61 61 64 66 73 69 71 73 74 78 72 78 73 76 77 78 81 81 75 79 78 79 74 67 69 70 71 72 72 72 72 72 71 71 71 71 71 71 71 71 71 70 70 69 70 69
66 62 57 60 58 58 69 70 73 72 72 81 79 72 75 78 74 73 78 79 79 74 77 79 79 79 78 76 66 67 69 69 70 70 69 68 68 69 68 67 70 71 70 70 70 70 69 69 69
64 55 54 57 58 61 68 65 72 75 72 75 75 76 74 75 68 68 72 75 76 74 74 79 77 79 79 78 71 66 65 66 66 67 65 67 77 76 72 69 67 69 69 69 69 69 69 67 66
59 53 56 62 63 59 64 64 66 66 70 71 72 74 70 69 65 64 68 72 74 74 75 77 76 75 76 77 75 76 76 76 76 76 75 78 78 77 75 67 63 65 65 66 67 68 66 65 77
56 52 60 59 62 61 60 61 68 63 63 70 69 73 68 63 63 65 70 74 74 76 77 77 77 76 71 73 74 76 77 77 76 76 75 76 76 74 74 75 74 74 62 75 73 73 75 73 75
48 55 55 55 58 56 56 63 60 64 66 70 71 72 72 63 62 64 69 74 74 74 75 75 78 75 71 71 74 76 76 76 75 75 74 73 74 73 74 74 74 73 75 74 74 75 74 73 74
49 53 55 56 55 55 58 56 58 61 69 70 71 71 70 69 65 66 69 72 74 73 74 75 76 74 72 68 72 71 75 75 76 75 74 75 74 73 74 74 74 74 75 74 74 74 74 74 74
52 51 52 54 54 55 52 55 58 62 69 69 69 69 71 71 67 65 66 67 69 72 73 75 75 74 70 68 69 68 75 75 75 75 74 74 74 73 73 73 73 74 75 75 75 74 74 74 74
50 43 49 52 54 52 55 49 52 63 66 65 67 69 71 70 71 68 66 66 69 72 73 72 72 71 68 68 68 68 75 75 74 75 74 73 73 73 72 73 73 74 75 74 74 74 73 73 74
44 45 40 52 52 53 52 44 58 63 61 63 67 63 64 66 69 69 68 66 68 70 70 72 72 70 71 70 68 67 74 75 75 75 75 73 73 73 73 73 73 75 74 74 73 73 73 73 74
43 38 42 46 54 52 49 46 55 57 57 57 58 59 61 60 65 65 64 66 68 70 71 71 70 68 69 69 67 68 72 74 75 75 75 74 74 73 73 73 74 74 73 73 73 72 72 72 73
33 34 37 36 43 44 46 47 49 53 53 52 50 53 52 55 57 64 64 65 69 71 72 73 71 69 68 68 66 66 69 72 73 74 75 74 74 73 73 73 73 73 72 73 73 71 71 70 73
42 37 35 38 43 41 45 47 46 50 51 48 47 48 48 51 54 59 64 68 67 69 69 69 67 68 67 64 62 63 64 68 71 73 73 73 74 74 73 73 73 73 67 67 66 65 64 64 66
41 35 35 43 45 45 46 38 44 47 46 46 45 46 46 48 51 52 54 62 65 65 66 66 66 66 66 66 65 67 69 70 72 72 72 73 74 74 73 73 72 67 66 65 66 64 64 64 65
39 34 33 34 43 46 40 35 37 43 44 45 47 47 47 46 47 49 50 52 55 58 62 64 66 66 66 66 67 66 68 68 68 69 71 72 73 73 73 72 68 67 66 65 65 64 64 63 65
37 45 40 37 38 32 38 29 33 37 37 40 44 47 46 48 48 46 48 49 50 52 57 58 60 61 61 64 65 66 65 64 67 67 70 70 72 71 71 69 67 65 65 65 66 67 65 63 61
42 48 44 38 37 37 34 32 32 35 34 37 42 43 44 47 47 45 46 48 49 50 52 54 55 56 56 58 61 63 63 64 64 62 62 63 63 64 64 64 64 65 65 67 67 67 64 63 65
48 45 44 43 37 32 32 34 30 33 33 37 42 43 44 44 46 47 47 48 49 50 50 52 52 53 54 54 53 55 56 57 59 60 60 59 59 59 59 59 59 61 62 62 63 66 65 66 66
48 44 34 32 31 28 34 33 30 35 39 40 42 43 44 45 45 45 46 49 48 47 49 51 51 52 54 51 53 52 52 53 54 55 55 56 56 56 55 56 56 56 57 59 61 63 63 65 65
41 41 34 24 27 29 38 29 33 40 45 44 44 45 47 46 46 45 45 46 47 47 47 48 48 49 51 52 51 52 53 52 52 53 54 55 54 53 54 54 55 56 58 58 60 59 60 60 61
42 38 42 34 29 32 33 35 43 46 45 47 46 47 46 47 47 47 47 46 46 47 45 46 48 48 48 48 49 52 52 52 54 53 54 52 54 53 54 55 55 55 56 56 57 57 56 58 57
43 45 36 37 26 23 29 31 35 40 42 45 45 45 46 49 48 48 49 50 50 50 49 49 48 48 48 49 49 50 51 52 53 53 52 52 52 52 51 52 53 53 54 54 54 53 53 52 53
40 41 40 39 36 29 27 31 44 43 44 43 43 44 46 48 48 49 50 51 51 51 51 50 50 51 50 50 49 50 50 50 51 52 51 52 51 52 51 51 51 51 51 52 53 52 52 51 50
39 37 38 35 29 34 33 34 46 46 46 46 45 45 47 48 50 51 50 51 51 50 50 50 50 51 50 51 51 50 49 50 50 50 51 52 51 51 52 51 51 51 51 52 51 51 51 50 49

GFSSGP_sfc_temp_246.txt.gz
Temp
72 81 82 75 58 59 55 61 72 68 68 73 76 72 71 73 69 58 74 81 81 76 76 74 74 75 75 75 75 75 75 76 76 76 76 76 76 75 75 75 75 76 76 76 75 74 73 72 72
71 77 75 68 55 50 56 68 67 70 73 76 73 73 71 70 77 72 72 80 82 78 76 75 72 74 75 75 75 75 75 75 76 76 76 76 75 75 75 75 75 76 76 75 74 73 72 72 72
72 80 65 61 56 51 55 68 69 74 76 72 68 73 72 73 77 75 78 81 82 78 76 76 71 74 75 74 75 74 75 75 75 75 75 75 75 75 75 75 75 75 75 75 73 72 72 71 71
73 71 68 55 54 62 63 70 72 71 74 75 72 69 75 79 78 79 81 81 80 78 78 70 72 74 74 74 74 74 74 74 75 75 75 75 75 75 74 74 75 75 75 74 73 72 71 70 70
71 66 55 54 56 63 69 74 75 67 70 71 73 68 71 76 80 79 78 81 79 77 73 73 71 73 73 73 74 73 73 74 74 74 74 74 74 74 74 74 74 74 73 72 72 71 70 70 70
61 63 51 50 56 65 71 75 73 69 70 72 68 67 70 76 76 76 78 75 81 74 72 74 68 70 71 72 72 73 73 73 73 73 74 74 73 74 73 73 72 72 72 72 71 70 70 70 69
56 55 52 54 57 61 68 75 70 65 65 68 75 67 69 72 76 77 77 75 78 74 74 72 71 70 68 69 70 71 72 72 72 72 72 72 72 72 72 71 71 72 72 71 70 70 69 69 69
61 57 51 53 55 57 68 69 70 69 66 75 75 64 64 71 76 76 76 74 74 73 74 73 72 71 70 68 67 68 69 69 70 69 68 67 68 68 69 67 69 71 71 70 70 69 69 69 68
66 50 49 54 55 56 64 61 68 73 68 66 72 72 71 73 72 70 70 71 72 71 73 75 72 72 71 70 66 65 66 66 66 66 65 64 66 67 64 66 67 69 69 69 69 69 69 67 66
55 49 54 59 59 55 59 59 60 61 63 65 68 74 73 68 66 64 67 68 69 69 71 74 73 72 72 74 67 67 68 67 67 66 65 67 69 69 69 63 64 66 65 67 68 68 67 64 63
56 49 57 59 61 60 57 56 61 57 55 62 64 71 71 65 63 65 66 68 68 70 72 75 75 73 72 72 68 69 68 69 66 66 66 66 70 69 64 62 61 61 57 62 64 64 63 64 65
49 58 59 58 59 57 54 58 55 57 57 65 66 70 70 69 63 62 65 68 69 69 73 74 75 75 72 69 68 67 69 69 65 66 67 65 64 64 64 63 63 62 61 62 63 63 65 66 67
51 54 57 58 57 56 58 54 54 55 61 65 67 68 68 68 68 64 65 68 68 67 71 73 74 71 71 69 68 68 71 70 66 66 67 66 64 63 64 64 64 63 64 64 64 64 65 65 66
53 52 52 55 56 57 54 54 55 57 62 62 64 64 66 68 68 68 63 65 67 67 70 73 73 73 68 67 68 70 69 71 67 66 66 67 65 64 64 63 64 63 65 65 65 64 64 64 66
52 45 51 54 56 54 55 48 50 57 61 60 61 63 65 67 68 67 68 64 68 66 70 73 73 73 68 67 68 70 70 71 66 66 67 67 67 65 64 63 63 64 65 66 65 65 65 64 66
47 48 40 52 54 54 51 39 52 57 56 56 59 58 58 59 58 58 64 65 66 65 63 68 72 71 68 68 67 67 68 67 66 66 66 67 68 67 64 63 63 65 68 69 68 67 66 66 67
44 34 39 44 54 50 46 40 49 53 54 52 53 53 53 55 56 55 59 64 64 64 65 66 68 68 67 67 66 67 66 68 69 67 66 67 68 68 65 64 64 69 68 66 66 66 66 65 66
33 35 39 39 47 46 43 42 49 51 51 47 48 50 51 52 53 55 55 62 63 64 65 65 65 67 67 67 64 64 65 64 68 69 70 70 67 67 65 64 64 68 66 66 66 66 66 63 63
43 39 36 42 48 42 42 43 44 47 48 46 46 46 47 51 53 54 53 55 57 63 63 64 65 65 66 64 62 62 62 63 65 68 70 71 68 68 66 64 65 68 66 66 65 63 62 63 63
41 38 35 41 46 43 42 37 41 42 42 44 44 43 46 48 50 51 51 52 52 53 57 63 64 65 65 66 64 63 64 63 66 66 68 69 68 68 67 65 65 65 63 63 62 61 61 61 62
40 33 33 35 40 42 38 35 36 39 42 42 42 44 46 46 46 48 49 49 50 50 51 53 56 63 64 64 64 64 63 63 63 63 64 65 68 68 66 66 65 64 63 61 61 62 61 59 60
36 47 43 40 36 32 38 28 33 37 37 39 38 40 43 44 47 47 48 48 49 49 51 52 53 54 56 59 62 62 61 61 62 64 63 64 65 64 65 65 63 63 63 61 61 62 62 61 59
42 48 44 42 37 37 33 30 32 37 34 35 39 39 43 44 46 47 47 48 49 51 50 51 52 52 53 54 56 58 60 60 60 61 61 60 60 60 60 61 61 61 61 61 60 60 58 58 59
50 45 45 41 38 30 30 29 29 31 33 35 39 42 44 46 46 47 48 50 48 49 50 51 51 50 51 52 53 53 53 53 56 57 57 56 57 57 57 58 58 58 58 58 59 59 57 57 57
45 39 26 27 25 23 36 30 30 36 37 39 39 41 43 46 45 46 46 47 47 48 48 50 49 48 50 50 51 51 51 52 51 52 54 54 54 54 54 55 55 55 55 56 57 57 57 57 57
38 39 25 18 22 25 36 23 30 41 44 45 44 43 43 43 45 46 46 46 47 47 47 48 48 47 48 49 49 50 51 51 51 51 52 52 52 52 53 53 54 54 54 55 55 55 54 55 55
39 33 40 31 26 24 31 34 40 45 45 45 46 46 45 45 46 46 47 47 46 46 46 46 46 46 46 46 47 48 49 50 50 50 51 50 50 51 51 51 52 52 53 53 54 53 52 53 53
39 43 30 28 18 21 26 28 29 37 41 44 43 43 45 46 46 47 46 47 47 46 46 48 47 46 46 46 46 46 47 48 49 50 49 49 49 50 50 50 50 51 52 52 52 51 51 50 49
37 36 38 37 31 26 25 25 39 39 41 40 43 44 45 44 45 46 47 47 48 47 47 46 47 46 47 48 48 47 47 48 49 49 49 49 49 49 49 49 49 49 49 50 49 48 48 47 47
39 36 38 27 28 30 30 26 45 43 43 43 42 45 46 45 45 45 45 47 47 46 48 47 46 46 47 48 48 48 49 48 48 48 48 48 48 49 49 49 49 49 49 49 47 47 47 46 44